YO8RBY-13 Weather Reports


time (UTC)temp
F
wind
direction
speed
knots
gust
knots
rain 1hr
in
rain 24hr
in
rain mn
in
humidity
%
barometer
mb
20200218204056 46 315 4.3 4.3 0.00 0.00 0.00 70 978.7
20200218203555 46 315 4.3 4.3 0.00 0.00 0.00 69 978.7
20200218203054 46 315 4.3 4.3 0.00 0.00 0.00 69 978.7
20200218202553 46 315 4.3 4.3 0.00 0.00 0.00 69 978.7
20200218202052 46 315 4.3 4.3 0.00 0.00 0.00 68 978.7
20200218201551 47 315 4.3 4.3 0.00 0.00 0.00 68 978.7
20200218201050 47 315 4.3 4.3 0.00 0.00 0.00 69 978.7
20200218200549 47 315 4.3 4.3 0.00 0.00 0.00 69 978.7
20200218200047 47 315 4.3 4.3 0.00 0.00 0.00 69 978.7
20200218195546 47 315 4.3 4.3 0.00 0.00 0.00 69 978.3
20200218195045 47 315 4.3 4.3 0.00 0.00 0.00 69 978.7
20200218194544 47 315 4.3 4.3 0.00 0.00 0.00 69 978.3
20200218194042 47 315 4.3 4.3 0.00 0.00 0.00 69 978.7
20200218193541 47 315 4.3 4.3 0.00 0.00 0.00 68 978.3
20200218193040 47 315 4.3 4.3 0.00 0.00 0.00 68 978.3
20200218192539 47 315 4.3 4.3 0.00 0.00 0.00 68 978.3
20200218192038 47 315 4.3 4.3 0.00 0.00 0.00 68 978.3
20200218191537 47 315 4.3 4.3 0.00 0.00 0.00 68 978.3
20200218191036 47 315 4.3 4.3 0.00 0.00 0.00 68 978.3
20200218190534 47 315 4.3 4.3 0.00 0.00 0.00 67 978.3
20200218190033 47 315 4.3 4.3 0.00 0.00 0.00 67 978.3
20200218185532 47 315 4.3 4.3 0.00 0.00 0.00 67 978.3
20200218185030 47 315 4.3 5.2 0.00 0.00 0.00 67 978.3
20200218184529 47 315 4.3 5.2 0.00 0.00 0.00 67 978.0
20200218184028 47 315 4.3 5.2 0.00 0.00 0.00 67 978.0
20200218183527 47 315 4.3 4.3 0.00 0.00 0.00 67 978.3
20200218183027 47 315 4.3 4.3 0.00 0.00 0.00 67 978.0
20200218182525 48 315 4.3 4.3 0.00 0.00 0.00 67 978.0
20200218182024 48 315 4.3 7.0 0.00 0.00 0.00 67 978.0
20200218181523 48 315 4.3 7.0 0.00 0.00 0.00 67 978.0
20200218181021 47 315 4.3 4.3 0.00 0.00 0.00 67 978.0
20200218180520 47 315 4.3 4.3 0.00 0.00 0.00 68 978.0
20200218180019 47 315 4.3 5.2 0.00 0.00 0.00 68 978.0
20200218175518 47 315 4.3 5.2 0.00 0.00 0.00 68 977.7
20200218175017 47 315 4.3 5.2 0.00 0.00 0.00 68 977.7
20200218174515 47 315 4.3 5.2 0.00 0.00 0.00 68 977.7
20200218174014 47 315 4.3 4.3 0.00 0.00 0.00 68 977.7
20200218173307 47 315 4.3 4.3 0.00 0.00 0.00 69 977.7
20200218172806 47 315 4.3 4.3 0.00 0.00 0.00 69 977.7
20200218171857 47 315 4.3 4.3 0.00 0.00 0.00 69 977.3
20200218171355 47 315 4.3 4.3 0.00 0.00 0.00 69 977.3
20200218170854 47 315 4.3 4.3 0.00 0.00 0.00 69 977.3
20200218170354 47 315 4.3 4.3 0.00 0.00 0.00 69 977.3
20200218165853 47 315 4.3 4.3 0.00 0.00 0.00 69 977.0
20200218165351 47 315 4.3 4.3 0.00 0.00 0.00 69 977.0
20200218164850 47 315 4.3 4.3 0.00 0.00 0.00 70 977.3
20200218164349 47 315 4.3 4.3 0.00 0.00 0.00 70 977.3
20200218163848 47 315 4.3 4.3 0.00 0.00 0.00 70 977.3
20200218163347 47 315 4.3 4.3 0.00 0.00 0.00 69 977.3
20200218162846 47 315 4.3 4.3 0.00 0.00 0.00 70 977.3
20200218162345 47 315 4.3 4.3 0.00 0.00 0.00 70 977.3
20200218161843 47 315 4.3 4.3 0.00 0.00 0.00 70 977.0
20200218161342 47 315 4.3 4.3 0.00 0.00 0.00 70 977.0
20200218160840 47 315 4.3 4.3 0.00 0.00 0.00 70 977.0
20200218160340 48 315 4.3 4.3 0.00 0.00 0.00 69 977.0
20200218155807 48 315 4.3 4.3 0.00 0.00 0.00 69 977.0
20200218155306 48 315 4.3 4.3 0.00 0.00 0.00 69 977.0
20200218154122 48 315 4.3 6.1 0.00 0.00 0.00 69 976.6
20200218153551 48 315 4.3 6.1 0.00 0.00 0.00 69 976.6
20200218153050 48 315 4.3 6.1 0.00 0.00 0.00 69 976.6
20200218152548 48 315 4.3 5.2 0.00 0.00 0.00 69 976.6
20200218152017 48 315 4.3 6.1 0.00 0.00 0.00 69 976.6
20200218151515 49 315 4.3 6.1 0.00 0.00 0.00 68 976.6
20200218151014 49 315 4.3 6.1 0.00 0.00 0.00 68 976.6
20200218150513 49 315 4.3 6.1 0.00 0.00 0.00 67 976.6
20200218150011 49 315 4.3 7.8 0.00 0.00 0.00 67 976.3
20200218145510 49 315 4.3 7.8 0.00 0.00 0.00 66 976.3
20200218145010 49 315 4.3 7.8 0.00 0.00 0.00 66 976.3
20200218144509 49 315 4.3 7.8 0.00 0.00 0.00 66 976.6
20200218144008 50 315 4.3 6.1 0.00 0.00 0.00 65 976.6
20200218143506 50 315 4.3 8.7 0.00 0.00 0.00 64 976.6
20200218143006 50 315 4.3 8.7 0.00 0.00 0.00 64 976.3
20200218142505 50 315 4.3 8.7 0.00 0.00 0.00 63 976.3
20200218142005 50 315 4.3 7.8 0.00 0.00 0.00 63 976.3
20200218070642 42 315 4.3 4.3 0.00 0.00 0.00 59 975.3
20200218070141 42 315 4.3 4.3 0.00 0.00 0.00 60 975.3
20200218065640 42 315 4.3 4.3 0.00 0.00 0.00 60 975.3
20200218065138 42 315 4.3 4.3 0.00 0.00 0.00 60 975.3
20200218064637 42 315 4.3 4.3 0.00 0.00 0.00 60 975.3
20200218064136 42 315 4.3 4.3 0.00 0.00 0.00 59 974.9
20200218063635 41 315 4.3 4.3 0.00 0.00 0.00 59 975.3
20200218063134 41 315 4.3 4.3 0.00 0.00 0.00 59 975.3
20200218062633 41 315 4.3 4.3 0.00 0.00 0.00 60 974.9
20200218062132 41 315 4.3 4.3 0.00 0.00 0.00 59 974.9
20200218061631 41 315 4.3 4.3 0.00 0.00 0.00 59 974.9
20200218061130 41 315 4.3 4.3 0.00 0.00 0.00 58 974.9
20200218060630 42 315 4.3 4.3 0.00 0.00 0.00 58 974.9